Search your local weather  

 
Advertise Here

Hazardous Weather Conditions

No active alerts for PHILADELPHIA, PENNSYLVANIA

Current Conditions: PHILADELPHIA, PENNSYLVANIA

Fair


94.0 F

Last Updated on Jul 3 2020, 6:54 pm EDT
Humidity: 32%
Wind Speed: W 5.8 mph
Barometer 29.80 in
Dewpoint: 60.1 F
Visibility: 10.00 mi
Precip: --
Heat Index: 94 F
Wind Chill: NA
Current conditions at:

Philadelphia, Northeast Philadelphia Airport, PA (KPNE)

Lat: 40.07889 Lon: -75.01361

Local Radar Image active severe weather and emergency alerts image image weather storm and storm spotter reports image weather observation monitoring service image
Local
Radar
Active
Alerts
Storm Reports Weather
Monitoring

5 Day Forecast for PHILADELPHIA, PENNSYLVANIA (19102)

Friday

Chance of T-storms

High 97 °F
Friday
Night
Chance of T-storms

Low 73 °F
Saturday

Isolated T-storm

High 89 °F
Saturday
Night
Partly Cloudy

Low 70 °F
Sunday

Partly Sunny

High 91 °F
Sunday
Night
Mostly Clear

Low 72 °F
Monday

Isolated T-storm

High 95 °F
Monday
Night
Isolated T-storm

Low 73 °F
Tuesday

Isolated T-storm

High 94 °F

Sign-up For Email & Text Message Weather Alert Notification Services


Advertise Here

Observation History for PHILADELPHIA, PENNSYLVANIA


Time Wind
(mph)
Vis
(mi)
Weather Precip (in) Temperature (F) Relative
Humidity
Wind
Chill
(F)
Heat
Index
(F)
Pressure
Air Dwpt altimeter
(in)
sea level
(mb)
6:54 pm EDT W 5.8 10.00 Fair -- 94.0 60.1 32% NA 94 29.80 1009.1
5:54 pm EDT NW 6.9 10.00 Fair -- 96.0 59.0 29% NA 96 29.81 1009.3
4:54 pm EDT N 11.5 G 16.1 10.00 Partly Cloudy -- 97.0 57.0 26% NA 96 29.82 1009.8
3:54 pm EDT NW 10.4 10.00 Mostly Cloudy -- 96.0 59.0 29% NA 96 29.84 1010.4
2:54 pm EDT NW 8.1 10.00 Fair -- 95.0 61.0 32% NA 95 29.85 1010.7
1:54 pm EDT NW 10.4 10.00 Mostly Cloudy -- 94.0 60.1 32% NA 94 29.86 1010.9
12:54 pm EDT NW 10.4 10.00 Fair -- 96.0 63.0 34% NA 97 29.86 1010.9
11:54 am EDT N 8.1 10.00 Fair -- 94.0 64.9 38% NA 96 29.87 1011.3
10:54 am EDT 6.9 10.00 Fair -- 90.0 64.0 42% NA 91 29.88 1011.7
9:54 am EDT NW 11.5 10.00 Fair -- 91.0 64.0 41% NA 92 29.87 1011.4
8:54 am EDT NW 11.5 10.00 Fair -- 87.0 64.0 46% NA 88 29.87 1011.5
7:54 am EDT NW 6.9 10.00 Partly Cloudy -- 82.0 64.0 55% NA 83 29.86 1011.1
6:54 am EDT NW 6.9 10.00 Mostly Cloudy -- 80.0 63.0 56% NA 81 29.86 1011.0
5:54 am EDT NW 9.2 10.00 Fair -- 79.0 63.0 58% NA NA 29.84 1010.4
4:54 am EDT NW 6.9 10.00 Fair -- 79.0 63.0 58% NA NA 29.84 1010.2
3:54 am EDT NW 6.9 10.00 Fair -- 80.0 63.0 56% NA 81 29.83 1010.1
2:54 am EDT NW 8.1 10.00 Fair -- 80.0 63.0 56% NA 81 29.83 1010.1
1:54 am EDT NW 6.9 10.00 Fair -- 81.0 64.0 57% NA 83 29.84 1010.1
12:54 am EDT NW 5.8 10.00 Fair -- 81.0 64.0 57% NA 83 29.84 1010.3
11:54 pm EDT NW 5.8 10.00 Fair -- 84.0 63.0 49% NA 85 29.84 1010.4
10:54 pm EDT NW 5.8 10.00 Fair -- 85.0 63.0 48% NA 86 29.84 1010.2
9:54 pm EDT NW 5.8 10.00 Fair -- 87.0 62.1 43% NA 87 29.83 1010.1
8:54 pm EDT NW 6.9 10.00 A Few Clouds -- 90.0 60.1 37% NA 90 29.82 1009.6
7:54 pm EDT N 9.2 10.00 Partly Cloudy -- 92.0 60.1 34% NA 92 29.81 1009.3

Regional Weather Observation

Pottstown, Pottstown Limerick Airport, PA (KPTW)

Fair
87.0 F

Doylestown, Doylestown Airport, PA (KDYL)

Fair
91.0 F

Quakertown Airport, PA (KUKT)

Fair
88.0 F

Allentown Queen City Municipal Airport, PA (KXLL)

Partly Cloudy
88.0 F

Reading, Reading Regional Airport, PA (KRDG)

Thunderstorm in Vicinity Light Rain Squalls and Windy
85.0 F

Philadelphia, Philadelphia International Airport, PA (KPHL)

Partly Cloudy
94.0 F
Advertise Here

Advertise Here